Find Starlink 1557

NORAD ID: 46034 Int'l Des: 2020-055 Owner: SPXS Country: US Constellation: starlink operational
LEOCIRCULARSTARLINK_TYPE

Live Position

Loading 3D Globe...

About Starlink 1557

Description loading...

Upcoming Passes

Passes for default location (London). Set your location on the main map for personalized predictions.

Altitude History

Loading altitude history...

Two-Line Element Set

1 46034U 20055H 26126.55126440 .00002861 00000-0 10864-3 0 9992
2 46034 53.1572 217.9467 0001162 93.8220 266.2913 15.30213555317721
Epoch: May 6, 2026 • Age: 18 hours

Current Status

Altitude 476.2 km
Velocity 7.63 km/s
Sub-Earth Point 29.04°N, 38.49°E
Launch Date Aug 7, 2020
Age 5.7 years
Type internet

Technical Details

Classification Payload
Mass 260.00 kg
Dry Mass 248.00 kg
Total Mass 260.00 kg
Length 0.20 m
Diameter 2.80 m
Span 9.00 m
Shape Box + pan
Manufacturer SPXS
Bus Type Starlink
Phase Status In Orbit
Owner/State SPXS/US

Most Searched